Bosporus — V2QY — position and weather

sailwx.info

Track history (hours):
 
Tides and Currents Weather Stations Pressure Air Temp Water Temp Dewpoint Dewpoint Depression Visibility Wind Speed Wind Dir Waves Ship Positions

Bosporus

Last reported at 2014-Oct-24 12:33 UTC. Time now 2014-Oct-24 12:45 UTC.
Position N 43°26' E 004°53'.

Length 100 m; draft 4 m.

Type: Cargo ship. MMSI: 304010802.

Date/timePositionNaut miles runAvg speedWind from/ knotsBaromVisibWave heightAir tempDewpointWater temp
2014-Oct-24 12:33N 43°26' E 004°53'0 0.0
2014-Oct-24 11:33N 43°26' E 004°53'0 0.0
2014-Oct-24 10:33N 43°26' E 004°53'0 0.0
2014-Oct-24 09:21N 43°26' E 004°53'0 0.0
2014-Oct-24 08:30N 43°26' E 004°53'0 0.0
2014-Oct-24 07:30N 43°26' E 004°53'0 0.0
2014-Oct-24 06:27N 43°26' E 004°53'0 0.0
2014-Oct-24 05:30N 43°26' E 004°53'0 0.0
2014-Oct-24 04:33N 43°26' E 004°53'0 0.0
2014-Oct-24 03:33N 43°26' E 004°53'2 1.5
2014-Oct-24 02:33N 43°25' E 004°55'0 0.5
2014-Oct-24 01:32N 43°25' E 004°56'0 0.0
2014-Oct-24 00:32N 43°25' E 004°56'0 0.0
2014-Oct-23 23:32N 43°25' E 004°56'0 0.0
2014-Oct-23 22:20N 43°25' E 004°56'0 0.0
2014-Oct-23 21:32N 43°25' E 004°56'0 0.0
2014-Oct-23 20:32N 43°25' E 004°56'0 0.0
2014-Oct-23 19:29N 43°25' E 004°56'0 0.0
2014-Oct-23 18:32N 43°25' E 004°56'0 0.0
2014-Oct-23 17:32N 43°25' E 004°56'0 0.0
2014-Oct-23 16:32N 43°25' E 004°56'0 0.0
2014-Oct-23 15:29N 43°25' E 004°56'0 0.0
2014-Oct-23 14:32N 43°25' E 004°56'0 0.0
2014-Oct-23 13:32N 43°25' E 004°56'0 0.0
2014-Oct-23 12:32N 43°25' E 004°56'0 0.0
2014-Oct-23 11:32N 43°25' E 004°56'0 0.0
2014-Oct-23 10:32N 43°25' E 004°56'0 0.0
2014-Oct-23 09:32N 43°25' E 004°56'0 0.0
2014-Oct-23 08:32N 43°25' E 004°56'5 5.3
2014-Oct-23 07:33N 43°20' E 004°56'88 8.6
2014-Oct-22 21:24N 42°32' E 003°15'8 7.4
2014-Oct-22 20:20N 42°24' E 003°16'4 5.1
2014-Oct-22 19:27N 42°21' E 003°20'5 4.6
2014-Oct-22 18:28N 42°17' E 003°21'6 5.9
2014-Oct-22 17:29N 42°11' E 003°19'7 6.5
2014-Oct-22 16:28N 42°04' E 003°18'7 7.0
2014-Oct-22 15:30N 41°58' E 003°16'13 6.3
2014-Oct-22 13:27N 41°46' E 003°09'10 9.3
2014-Oct-22 12:24N 41°40' E 002°59'12 9.8
2014-Oct-22 11:10N 41°33' E 002°46'27 0.7
2014-Oct-20 19:27N 41°16' E 002°17'19 9.7
2014-Oct-20 17:29N 41°28' E 002°37'10 9.2
2014-Oct-20 16:26N 41°34' E 002°47'30 9.7
2014-Oct-20 13:21N 41°52' E 003°19'1011.0
2014-Oct-20 12:27N 42°00' E 003°27'1910.0
2014-Oct-20 10:32N 42°15' E 003°43'1210.9
2014-Oct-20 09:28N 42°24' E 003°53'910.1
2014-Oct-20 08:32N 42°31' E 004°01'1610.8
2014-Oct-20 07:05N 42°43' E 004°15'2910.3
2014-Oct-20 04:14N 43°06' E 004°40'7 9.9
2014-Oct-20 03:33N 43°11' E 004°46'10 9.8
2014-Oct-20 02:32N 43°19' E 004°55'7 7.3
2014-Oct-20 01:33N 43°26' E 004°54'0 0.0
2014-Oct-20 00:33N 43°26' E 004°54'0 0.0
2014-Oct-19 23:33N 43°26' E 004°54'0 0.0
2014-Oct-19 22:33N 43°26' E 004°54'0 0.0
2014-Oct-19 21:33N 43°26' E 004°54'0 0.0
2014-Oct-19 20:30N 43°26' E 004°54'0 0.0
2014-Oct-19 19:21N 43°26' E 004°54'0 0.0
2014-Oct-19 18:33N 43°26' E 004°54'0 0.0
2014-Oct-19 17:33N 43°26' E 004°54'0 0.0
2014-Oct-19 16:33N 43°26' E 004°54'0 0.0
2014-Oct-19 15:33N 43°26' E 004°54'0 0.0
2014-Oct-19 14:30N 43°26' E 004°54'0 0.0
2014-Oct-19 13:33N 43°26' E 004°54'0 0.0
2014-Oct-19 12:30N 43°26' E 004°54'0 0.0
2014-Oct-19 11:30N 43°26' E 004°54'0 0.0
2014-Oct-19 10:30N 43°26' E 004°54'0 0.0
2014-Oct-19 09:24N 43°26' E 004°54'0 0.0
2014-Oct-19 08:30N 43°26' E 004°54'0 0.0
2014-Oct-19 07:30N 43°26' E 004°54'0 0.0
2014-Oct-19 06:33N 43°26' E 004°54'0 0.0
2014-Oct-19 05:24N 43°26' E 004°54'0 0.0
2014-Oct-19 04:33N 43°26' E 004°54'0 0.0
2014-Oct-19 03:30N 43°26' E 004°54'0 0.0
2014-Oct-19 02:27N 43°26' E 004°54'0 0.0
2014-Oct-19 01:33N 43°26' E 004°54'0 0.0
2014-Oct-19 00:30N 43°26' E 004°54'0 0.0
2014-Oct-18 23:30N 43°26' E 004°54'0 0.0
2014-Oct-18 22:31N 43°26' E 004°54'3 2.9
2014-Oct-18 21:33N 43°24' E 004°57'0 0.0
2014-Oct-18 20:33N 43°24' E 004°57'0 0.0
2014-Oct-18 19:33N 43°24' E 004°57'0 0.0
2014-Oct-18 18:33N 43°24' E 004°57'0 0.0
2014-Oct-18 17:33N 43°24' E 004°57'0 0.0
2014-Oct-18 16:33N 43°24' E 004°57'0 0.0
2014-Oct-18 15:33N 43°24' E 004°57'0 0.0
2014-Oct-18 14:33N 43°24' E 004°57'0 0.0
2014-Oct-18 13:33N 43°24' E 004°57'0 0.0
2014-Oct-18 12:33N 43°24' E 004°57'0 0.0
2014-Oct-18 11:33N 43°24' E 004°57'0 0.0
2014-Oct-18 10:33N 43°24' E 004°57'0 0.0
2014-Oct-18 09:33N 43°24' E 004°57'0 0.0
2014-Oct-18 08:33N 43°24' E 004°57'0 0.0
2014-Oct-18 07:33N 43°24' E 004°57'0 0.0
2014-Oct-18 06:33N 43°24' E 004°57'0 0.0
2014-Oct-18 05:33N 43°24' E 004°57'0 0.0
2014-Oct-18 04:33N 43°24' E 004°57'0 0.0
2014-Oct-18 03:30N 43°24' E 004°57'0 0.0
2014-Oct-18 02:33N 43°24' E 004°57'0 0.0
2014-Oct-18 01:33N 43°24' E 004°57'0 0.1
2014-Oct-18 00:33N 43°24' E 004°57'0 0.0
2014-Oct-17 23:33N 43°24' E 004°57'0 0.0
2014-Oct-17 22:27N 43°24' E 004°57'0 0.0
2014-Oct-17 21:33N 43°24' E 004°57'0 0.0
2014-Oct-17 20:33N 43°24' E 004°57'0 0.0
2014-Oct-17 19:33N 43°24' E 004°57'0 0.0
2014-Oct-17 18:33N 43°24' E 004°57'0 0.0
2014-Oct-17 17:33N 43°24' E 004°57'0 0.0
2014-Oct-17 16:33N 43°24' E 004°57'0 0.0
2014-Oct-17 15:33N 43°24' E 004°57'0 0.0
2014-Oct-17 14:33N 43°24' E 004°57'0 0.0
2014-Oct-17 13:33N 43°24' E 004°57'0 0.0
2014-Oct-17 12:33N 43°24' E 004°57'0 0.0
2014-Oct-17 11:33N 43°24' E 004°57'0 0.0
2014-Oct-17 10:33N 43°24' E 004°57'0 0.0
2014-Oct-17 09:33N 43°24' E 004°57'0 0.0
2014-Oct-17 08:33N 43°24' E 004°57'6 5.8
2014-Oct-17 07:34N 43°19' E 004°60'9 9.2
2014-Oct-17 06:32N 43°09' E 004°60'10210.2
2014-Oct-16 20:33N 41°56' E 003°24'1110.6
2014-Oct-16 19:32N 41°49' E 003°13'9 9.2
2014-Oct-16 18:32N 41°43' E 003°04'1410.8
2014-Oct-16 17:12N 41°34' E 002°48'910.9
2014-Oct-16 16:25N 41°29' E 002°39'3110.6
2014-Oct-16 13:32N 41°13' E 002°05'1210.7
2014-Oct-16 12:26N 41°09' E 001°50'1210.4
2014-Oct-16 11:20N 41°06' E 001°35'  
Track history (hours):
 
Tides and Currents Weather Stations Pressure Air Temp Water Temp Dewpoint Dewpoint Depression Visibility Wind Speed Wind Dir Waves Ship Positions

Bosporus

Last reported at 2014-Oct-24 12:33 UTC. Time now 2014-Oct-24 12:45 UTC.
Position N 43°26' E 004°53'.

Length 100 m; draft 4 m.

Type: Cargo ship. MMSI: 304010802.

Date/timePositionNaut miles runAvg speedWind from/ knotsBaromVisibWave heightAir tempDewpointWater temp
2014-Oct-24 12:33N 43°26' E 004°53'0 0.0
2014-Oct-24 11:33N 43°26' E 004°53'0 0.0
2014-Oct-24 10:33N 43°26' E 004°53'0 0.0
2014-Oct-24 09:21N 43°26' E 004°53'0 0.0
2014-Oct-24 08:30N 43°26' E 004°53'0 0.0
2014-Oct-24 07:30N 43°26' E 004°53'0 0.0
2014-Oct-24 06:27N 43°26' E 004°53'0 0.0
2014-Oct-24 05:30N 43°26' E 004°53'0 0.0
2014-Oct-24 04:33N 43°26' E 004°53'0 0.0
2014-Oct-24 03:33N 43°26' E 004°53'2 1.5
2014-Oct-24 02:33N 43°25' E 004°55'0 0.5
2014-Oct-24 01:32N 43°25' E 004°56'0 0.0
2014-Oct-24 00:32N 43°25' E 004°56'0 0.0
2014-Oct-23 23:32N 43°25' E 004°56'0 0.0
2014-Oct-23 22:20N 43°25' E 004°56'0 0.0
2014-Oct-23 21:32N 43°25' E 004°56'0 0.0
2014-Oct-23 20:32N 43°25' E 004°56'0 0.0
2014-Oct-23 19:29N 43°25' E 004°56'0 0.0
2014-Oct-23 18:32N 43°25' E 004°56'0 0.0
2014-Oct-23 17:32N 43°25' E 004°56'0 0.0
2014-Oct-23 16:32N 43°25' E 004°56'0 0.0
2014-Oct-23 15:29N 43°25' E 004°56'0 0.0
2014-Oct-23 14:32N 43°25' E 004°56'0 0.0
2014-Oct-23 13:32N 43°25' E 004°56'0 0.0
2014-Oct-23 12:32N 43°25' E 004°56'0 0.0
2014-Oct-23 11:32N 43°25' E 004°56'0 0.0
2014-Oct-23 10:32N 43°25' E 004°56'0 0.0
2014-Oct-23 09:32N 43°25' E 004°56'0 0.0
2014-Oct-23 08:32N 43°25' E 004°56'5 5.3
2014-Oct-23 07:33N 43°20' E 004°56'88 8.6
2014-Oct-22 21:24N 42°32' E 003°15'8 7.4
2014-Oct-22 20:20N 42°24' E 003°16'4 5.1
2014-Oct-22 19:27N 42°21' E 003°20'5 4.6
2014-Oct-22 18:28N 42°17' E 003°21'6 5.9
2014-Oct-22 17:29N 42°11' E 003°19'7 6.5
2014-Oct-22 16:28N 42°04' E 003°18'7 7.0
2014-Oct-22 15:30N 41°58' E 003°16'13 6.3
2014-Oct-22 13:27N 41°46' E 003°09'10 9.3
2014-Oct-22 12:24N 41°40' E 002°59'12 9.8
2014-Oct-22 11:10N 41°33' E 002°46'27 0.7
2014-Oct-20 19:27N 41°16' E 002°17'19 9.7
2014-Oct-20 17:29N 41°28' E 002°37'10 9.2
2014-Oct-20 16:26N 41°34' E 002°47'30 9.7
2014-Oct-20 13:21N 41°52' E 003°19'1011.0
2014-Oct-20 12:27N 42°00' E 003°27'1910.0
2014-Oct-20 10:32N 42°15' E 003°43'1210.9
2014-Oct-20 09:28N 42°24' E 003°53'910.1
2014-Oct-20 08:32N 42°31' E 004°01'1610.8
2014-Oct-20 07:05N 42°43' E 004°15'2910.3
2014-Oct-20 04:14N 43°06' E 004°40'7 9.9
2014-Oct-20 03:33N 43°11' E 004°46'10 9.8
2014-Oct-20 02:32N 43°19' E 004°55'7 7.3
2014-Oct-20 01:33N 43°26' E 004°54'0 0.0
2014-Oct-20 00:33N 43°26' E 004°54'0 0.0
2014-Oct-19 23:33N 43°26' E 004°54'0 0.0
2014-Oct-19 22:33N 43°26' E 004°54'0 0.0
2014-Oct-19 21:33N 43°26' E 004°54'0 0.0
2014-Oct-19 20:30N 43°26' E 004°54'0 0.0
2014-Oct-19 19:21N 43°26' E 004°54'0 0.0
2014-Oct-19 18:33N 43°26' E 004°54'0 0.0
2014-Oct-19 17:33N 43°26' E 004°54'0 0.0
2014-Oct-19 16:33N 43°26' E 004°54'0 0.0
2014-Oct-19 15:33N 43°26' E 004°54'0 0.0
2014-Oct-19 14:30N 43°26' E 004°54'0 0.0
2014-Oct-19 13:33N 43°26' E 004°54'0 0.0
2014-Oct-19 12:30N 43°26' E 004°54'0 0.0
2014-Oct-19 11:30N 43°26' E 004°54'0 0.0
2014-Oct-19 10:30N 43°26' E 004°54'0 0.0
2014-Oct-19 09:24N 43°26' E 004°54'0 0.0
2014-Oct-19 08:30N 43°26' E 004°54'0 0.0
2014-Oct-19 07:30N 43°26' E 004°54'0 0.0
2014-Oct-19 06:33N 43°26' E 004°54'0 0.0
2014-Oct-19 05:24N 43°26' E 004°54'0 0.0
2014-Oct-19 04:33N 43°26' E 004°54'0 0.0
2014-Oct-19 03:30N 43°26' E 004°54'0 0.0
2014-Oct-19 02:27N 43°26' E 004°54'0 0.0
2014-Oct-19 01:33N 43°26' E 004°54'0 0.0
2014-Oct-19 00:30N 43°26' E 004°54'0 0.0
2014-Oct-18 23:30N 43°26' E 004°54'0 0.0
2014-Oct-18 22:31N 43°26' E 004°54'3 2.9
2014-Oct-18 21:33N 43°24' E 004°57'0 0.0
2014-Oct-18 20:33N 43°24' E 004°57'0 0.0
2014-Oct-18 19:33N 43°24' E 004°57'0 0.0
2014-Oct-18 18:33N 43°24' E 004°57'0 0.0
2014-Oct-18 17:33N 43°24' E 004°57'0 0.0
2014-Oct-18 16:33N 43°24' E 004°57'0 0.0
2014-Oct-18 15:33N 43°24' E 004°57'0 0.0
2014-Oct-18 14:33N 43°24' E 004°57'0 0.0
2014-Oct-18 13:33N 43°24' E 004°57'0 0.0
2014-Oct-18 12:33N 43°24' E 004°57'0 0.0
2014-Oct-18 11:33N 43°24' E 004°57'0 0.0
2014-Oct-18 10:33N 43°24' E 004°57'0 0.0
2014-Oct-18 09:33N 43°24' E 004°57'0 0.0
2014-Oct-18 08:33N 43°24' E 004°57'0 0.0
2014-Oct-18 07:33N 43°24' E 004°57'0 0.0
2014-Oct-18 06:33N 43°24' E 004°57'0 0.0
2014-Oct-18 05:33N 43°24' E 004°57'0 0.0
2014-Oct-18 04:33N 43°24' E 004°57'0 0.0
2014-Oct-18 03:30N 43°24' E 004°57'0 0.0
2014-Oct-18 02:33N 43°24' E 004°57'0 0.0
2014-Oct-18 01:33N 43°24' E 004°57'0 0.1
2014-Oct-18 00:33N 43°24' E 004°57'0 0.0
2014-Oct-17 23:33N 43°24' E 004°57'0 0.0
2014-Oct-17 22:27N 43°24' E 004°57'0 0.0
2014-Oct-17 21:33N 43°24' E 004°57'0 0.0
2014-Oct-17 20:33N 43°24' E 004°57'0 0.0
2014-Oct-17 19:33N 43°24' E 004°57'0 0.0
2014-Oct-17 18:33N 43°24' E 004°57'0 0.0
2014-Oct-17 17:33N 43°24' E 004°57'0 0.0
2014-Oct-17 16:33N 43°24' E 004°57'0 0.0
2014-Oct-17 15:33N 43°24' E 004°57'0 0.0
2014-Oct-17 14:33N 43°24' E 004°57'0 0.0
2014-Oct-17 13:33N 43°24' E 004°57'0 0.0
2014-Oct-17 12:33N 43°24' E 004°57'0 0.0
2014-Oct-17 11:33N 43°24' E 004°57'0 0.0
2014-Oct-17 10:33N 43°24' E 004°57'0 0.0
2014-Oct-17 09:33N 43°24' E 004°57'0 0.0
2014-Oct-17 08:33N 43°24' E 004°57'6 5.8
2014-Oct-17 07:34N 43°19' E 004°60'9 9.2
2014-Oct-17 06:32N 43°09' E 004°60'10210.2
2014-Oct-16 20:33N 41°56' E 003°24'1110.6
2014-Oct-16 19:32N 41°49' E 003°13'9 9.2
2014-Oct-16 18:32N 41°43' E 003°04'1410.8
2014-Oct-16 17:12N 41°34' E 002°48'910.9
2014-Oct-16 16:25N 41°29' E 002°39'3110.6
2014-Oct-16 13:32N 41°13' E 002°05'1210.7
2014-Oct-16 12:26N 41°09' E 001°50'1210.4
2014-Oct-16 11:20N 41°06' E 001°35'  

Dump ship's entire track history